Regional Weather Roundup
Issued by NWS

Home | Current Version | Previous Version | Graphics & Text | Print | Product List | Glossary On
Versions: 1 2 3 4 5 6 7 8 9 10 11 12 13 14 15 16 17 18 19 20 21 22 23 24 25 26 27 28 29 30 31 32 33 34 35 36 37 38 39 40 41 42 43 44 45 46 47 48 49 50
000
ASUS43 KMPX 070101
RWRMN
WEATHER ROUNDUP FOR MINNESOTA
NATIONAL WEATHER SERVICE TWIN CITIES/CHANHASSEN MN
800 PM CDT WED MAY 06 2015


NOTE: "FAIR" INDICATES FEW OR NO CLOUDS BELOW 12,000 FEET WITH NO
SIGNIFICANT WEATHER AND/OR OBSTRUCTIONS TO VISIBILITY. N/A MEANS
CURRENT SKY AND/OR WEATHER CONDITIONS ARE NOT AVAILABLE.

MNZ060>063-068>070-070200-
   Twin Cities Metro

CITY           SKY/WX    TMP DP  RH WIND       PRES   REMARKS
TWIN CITIES    CLOUDY    69  61  75 SE15      29.86S
ST PAUL        CLOUDY    67  61  81 SE13      29.87F
CRYSTAL        CLOUDY    70  60  70 SE16G22   29.84S
BLAINE         MOCLDY    72  61  68 SE18G24   29.86S
LAKEVILLE      MOCLDY    68  61  77 SE12G18   29.86S
EDEN PRAIRIE   MOCLDY    70  61  73 SE17G24   29.83S
SOUTH ST PAUL  CLOUDY    67  61  80 SE10      29.87F
LAKE ELMO      FAIR      64  61  88 SE13      29.89F
$$
MNZ001>005-007-008-013>017-022>024-027-028-070200-
   Northwest Minnesota

CITY           SKY/WX    TMP DP  RH WIND       PRES   REMARKS
BEMIDJI        CLOUDY    62  54  74 E9        29.80S
HALLOCK        DRIZZLE   63  61  94 E15       29.74S
ROSEAU         CLOUDY    61  55  82 E8        29.78F
WARROAD        DRIZZLE   59  55  88 E8        29.80F
THIEF RVR FALL CLOUDY    61  57  88 E13       29.75F
CROOKSTON      DRIZZLE   61  59  94 E10       29.70F
FOSSTON        CLOUDY    63  55  77 E9G16     29.75F
DETROIT LAKES  CLOUDY    63  59  88 SE8       29.75S
MOORHEAD       CLOUDY    64  61  88 SE14G21   29.68F
PARK RAPIDS    CLOUDY    64  58  80 SE16      29.78F
MAHNOMEN       MOCLDY    66  56  70 SE18G25   29.72F
$$
MNZ006-009>011-018-025>026-070200-
   North Central Minnesota

CITY           SKY/WX    TMP DP  RH WIND       PRES   REMARKS
BAUDETTE       LGT RAIN  61  58  90 E8        29.82F
FLAG ISLAND    LGT RAIN  57  55  94 SE3       29.82F
INTL FALLS     CLOUDY    64  55  72 SE10      29.85F
WASKISH        CLOUDY    63  55  77 E10       29.82S
BIG FORK       LGT RAIN  63  54  72 E7        29.86S
LONGVILLE      DRIZZLE   63  57  82 SE9       29.85R
GRAND RAPIDS   CLOUDY    63  52  67 E8        29.86F
CRANE LAKE     CLOUDY    63  54  72 SE3       29.91F
COOK           CLOUDY    61  52  72 E7        29.90F
WALKER         DRIZZLE   61  56  83 E6        29.81S
$$
MNZ012-019>021-037-070200-
   Northeast Minnesota

CITY           SKY/WX    TMP DP  RH WIND       PRES   REMARKS
DULUTH         CLOUDY    57  44  62 E16       29.93S
ELY            CLOUDY    59  50  72 SE12      29.95F
HIBBING        CLOUDY    61  53  75 E9        29.89F
EVELETH        CLOUDY    57  50  77 E5        29.92F
DULUTH HARBOR    N/A     45  37  76 E12       29.96F
TWO HARBORS    CLOUDY    57  41  54 NE10G17   29.94F
SILVER BAY     CLOUDY    57  28  33 NE8       29.96F
GRAND MARAIS     N/A     45  33  63 NE10      30.00F
G MARAIS ARPRT CLOUDY    57  37  47 E7        30.03S
$$
MNZ029>031-032-039>041-046>048-054>057-064-070200-
   West Central Minnesota

CITY           SKY/WX    TMP DP  RH WIND       PRES   REMARKS
FERGUS FALLS   CLOUDY    64  63  94 SE13      29.71S
WHEATON        MOCLDY    66  61  82 SE8       29.69F
MORRIS         MOCLDY    66  61  82 S17       29.71R
ALEXANDRIA     LGT RAIN  64  62  93 SE20G25   29.76S FOG
ELBOW LAKE     HVY RAIN  65  63  91 SE15G21   29.72R
WADENA         CLOUDY    64  59  82 SE15      29.76S
GLENWOOD       CLOUDY    66  64  94 S17G23    29.77R
APPLETON       MOCLDY    70  61  73 S15G25    29.71S
BENSON         MOCLDY    72  57  60 S21G28    29.74R
ORTONVILLE     PTCLDY    70  59  68 S15G24    29.69S
MADISON        PTCLDY    68  57  68 S18       29.72R
WILLMAR        FAIR      72  59  64 S7        29.79R
$$
MNZ033>034-036-042>043-049>051-058-059-070200-
   Central Minnesota

CITY           SKY/WX    TMP DP  RH WIND       PRES   REMARKS
ST CLOUD       MOCLDY    67  62  84 SE12      29.81F
SAUK CENTRE    FAIR      66  63  88 SE15G22   29.77S
PAYNESVILLE    CLOUDY    66  62  86 E7        29.79R
AITKIN         MIX PCPN  63  55  77 E6        29.85R
PINE RIVER     CLOUDY    61  59  94 SE7       29.86F
BRAINERD       CLOUDY    62  60  93 SE7       29.83F
STAPLES        CLOUDY    63  59  88 SE8       29.79F
LONG PRAIRIE   MOCLDY    64  61  88 E12       29.78F
LITTLE FALLS   MOCLDY    63  59  88 E10       29.80F
LITCHFIELD     CLOUDY    72  63  73 SE8       29.81R
BUFFALO        MOCLDY    69  60  74 SE12      29.84S
MAPLE LAKE     MOCLDY    69  63  80 SE7       29.83S
$$
MNZ037-044-045-052-053-070200-
   East Central Minnesota

CITY           SKY/WX    TMP DP  RH WIND       PRES   REMARKS
PRINCETON      MOCLDY    70  61  73 SE10G23   29.84F
MORA           CLOUDY    68  54  60 SE16G24   29.87S
CAMBRIDGE      CLOUDY    72  57  60 SE13G20   29.84S
RUSH CITY      CLOUDY    69  58  68 SE14G28   29.88S
MOOSE LAKE     CLOUDY    54  39  58 NE7       29.88F
HINCKLEY       CLOUDY    72  55  56 SE17G28   29.88S
CLOQUET        CLOUDY    54  37  54 E7        29.92S
MCGREGOR       CLOUDY    59  50  72 E14       29.87S
$$
MNZ071>073-080-081-089-090-097-098-070200-
   Southwest Minnesota

CITY           SKY/WX    TMP DP  RH WIND       PRES   REMARKS
MONTEVIDEO     PTCLDY    70  59  68 SW15G24   29.75R
GRANITE FALLS  MOCLDY    69  57  66 SE22G29   29.76F
CANBY          MOCLDY    68  58  69 S14G23    29.73S
MARSHALL       PTCLDY    70  55  60 S20G28    29.74S
REDWOOD FALLS  CLOUDY    71  58  63 S18       29.77S
OLIVIA         CLOUDY    68  54  60 S13G21    29.78R
PIPESTONE      CLOUDY    66  61  82 S18G28    29.74S
WORTHINGTON    CLOUDY    66  59  77 S13G20    29.78F
JACKSON        LGT RAIN  68  61  77 SE9G16    29.81F
TRACY          PTCLDY    69  60  73 S16G26    29.76F
SLAYTON        CLOUDY    65  62  88 SE20      29.77F
$$
MNZ065>067-074>077-082>085-091>093-070200-
   South Central Minnesota

CITY           SKY/WX    TMP DP  RH WIND       PRES   REMARKS
MANKATO        MOCLDY    73  55  53 S17       29.83S
NEW ULM        CLOUDY    70  61  73 S9        29.80S
ST JAMES       MOCLDY    70  63  78 SE7       29.82R
FAIRMONT       MOCLDY    72  39  30 S20G28    29.81S
GLENCOE        CLOUDY    72  62  69 S8        29.81S
FARIBAULT      MOCLDY    72  61  68 SE12G20   29.87S
OWATONNA       MOCLDY    70  61  73 SE17      29.87S
WASECA         MOCLDY    70  61  73 SE16G23   29.87R
ALBERT LEA     MOCLDY    72  57  60 S14       29.87R
$$
MNZ078>079-086>088-094>096-070200-
   Southeast Minnesota

CITY           SKY/WX    TMP DP  RH WIND       PRES   REMARKS
ROCHESTER      CLOUDY    66  60  81 SE16G24   29.92S
RED WING       CLOUDY    66  63  88 SE12      29.89F
STANTON        LGT RAIN  69  61  76 SE12      29.86S
DODGE CENTER   CLOUDY    66  61  82 SE14      29.90S
WINONA         CLOUDY    64  63  94 SE6       29.94S
AUSTIN         CLOUDY    66  61  82 SE10G17   29.89S
PRESTON        CLOUDY    65  59  80 S12G20    29.94S
$$
ABBREVIATIONS USED IN REMARKS
   TC - TEMPERATURES IN CELSIUS
  WCI - WIND CHILL INDEX
   HX - HEAT INDEX
  VSB - VISIBILITY
$$



USA.gov is the U.S. government's official web portal to all federal, state and local government web resources and services.